Location: Cieszkowy
(50.3290°N, 20.5336°E)
Time: 00:07:14
(UTC+00:00)

H-2A R/B - Pass Details

Date: 15 June 2024
Orbit: 565 x 637 km, 98.4° (Epoch: 18 July)

Event Time Altitude Azimuth Distance (km) Brightness Sun altitude
Rises 00:13:09 0° 2° (N) 2,903 6.9 -13.4°
Reaches altitude 10° 00:15:57 10° 343° (NNW) 1,977 5.4 -13.2°
Maximum altitude 00:18:45 17° 302° (WNW) 1,536 4.2 -13.1°
Drops below altitude 10° 00:21:30 10° 261° (W) 1,937 4.3 -12.9°
Enters shadow 00:22:11 - 255° (WSW) 2,132 4.4 -12.9°
